This is the latest recevied weather packets stored in our database for station/object K2CCS. If no packets are shown the sender has not sent any weather packets the latest 10 day(s).
| Time | Temp. | Humidity | Pressure | Rain* | Wind** | Luminosity | Snow |
|---|---|---|---|---|---|---|---|
| 1777245131 | 18.33° C | 34% | 1023.5 hPa | 0 mm | - | 21 W/m² | - |
| 1777244828 | 18.33° C | 34% | 1023.5 hPa | 0 mm | - | 23 W/m² | - |
| 1777244523 | 18.33° C | 34% | 1023.8 hPa | 0 mm | - | 25 W/m² | - |
| 1777244220 | 18.89° C | 33% | 1023.6 hPa | 0 mm | - | 28 W/m² | - |
| 1777243918 | 18.89° C | 33% | 1023.7 hPa | 0 mm | - | 31 W/m² | - |
| 1777243614 | 18.89° C | 32% | 1023.6 hPa | 0 mm | - | 32 W/m² | - |
| 1777243311 | 18.89° C | 32% | 1023.5 hPa | 0 mm | - | 36 W/m² | - |
| 1777243006 | 18.89° C | 31% | 1023.5 hPa | 0 mm | - | 40 W/m² | - |
| 1777242704 | 19.44° C | 31% | 1023.6 hPa | 0 mm | - | 111 W/m² | - |
| 1777242399 | 19.44° C | 31% | 1023.5 hPa | 0 mm | - | 120 W/m² | - |
| 1777242097 | 19.44° C | 31% | 1023.5 hPa | 0 mm | - | 141 W/m² | - |
| 1777241794 | 19.44° C | 30% | 1023.6 hPa | 0 mm | - | 144 W/m² | - |
| 1777241491 | 19.44° C | 31% | 1023.7 hPa | 0 mm | - | 161 W/m² | - |
| 1777241189 | 19.44° C | 31% | 1023.5 hPa | 0 mm | - | 186 W/m² | - |
| 1777240886 | 20° C | 30% | 1023.5 hPa | 0 mm | - | 202 W/m² | - |
| 1777240584 | 20° C | 30% | 1023.6 hPa | 0 mm | - | 215 W/m² | - |
| 1777240281 | 20° C | 30% | 1023.5 hPa | 0 mm | - | 225 W/m² | - |
| 1777239979 | 20° C | 30% | 1023.4 hPa | 0 mm | - | 245 W/m² | - |
| 1777239676 | 19.44° C | 31% | 1023.3 hPa | 0 mm | - | 268 W/m² | - |
| 1777239372 | 19.44° C | 30% | 1023.4 hPa | 0 mm | - | 280 W/m² | - |
| 1777239070 | 20° C | 30% | 1023.5 hPa | 0 mm | - | 297 W/m² | - |
| 1777238767 | 20° C | 32% | 1023.4 hPa | 0 mm | - | 318 W/m² | - |
| 1777238463 | 20° C | 29% | 1023.3 hPa | 0 mm | - | 330 W/m² | - |
| 1777238160 | 20° C | 29% | 1023.3 hPa | 0 mm | - | 344 W/m² | - |
| 1777237857 | 20.56° C | 29% | 1023.3 hPa | 0 mm | - | 358 W/m² | - |
* Rain latest hour (hover to see other rain measurements)
** Current wind speed in m/s (hover to see current wind gust speed)